Accueil
METAR-TAF:

METAR-TAF

Aéroports :

Passo della Cisa, Italie

latitude: 44-26N, longitude: 009-56E, altitude: 1039 m

Observation

Le bulletin a été fait il y a 10 heures et 3 minutes, à 15:55 UTC
Vent 15 kt de sud-ouest
Température 23°C
Humidité 83%
Pression 1022 hPa
Visibilité 10 km ou plus
Quelques nuages à une hauteur de 1200 ft

METAR: LIMT 231555Z 22015KT 9999 FEW012 23/20 Q1022 RMK FEW MON LIB VAL NIL VIS MIN 9999

Heure: 03:58 (01:58 UTC)


TAF: absent

Observations et prévisions météorologiques de plus de 4000 aéroports (messages METAR et TAF).

Les stations disponibles sont représentées par des disques jaunes et rouges sur la carte.

Passer la souris dessus pour voir le nom de la station.

Cliquer dessus pour voir les observations et prévisions météorologiques.

Pour changer de carte: cliquez sur les boutons verts avec une croix noire pour zoomer, sur le bouton vert avec un tiret pour effectuer un zoom arrière, ou sur les flèches vertes pour les cartes adjacentes.


METAR-TAF: